OneWeb SL0267

operational
NORAD ID: 48985 Int'l Des: 2021-060 Owner: ONEWEBN Country: UK Constellation: oneweb
LEOCIRCULARPOLARONEWEB_TYPE

About OneWeb SL0267

Description loading...

Live Position

Loading 3D Globe...

Upcoming Passes

Altitude History

Altitude vs Time

uPlot chart will show altitude changes over time

Two-Line Element Set

1 48985U 21060U 25258.56375452 -.00000033 00000-0 -11960-3 0 9990
2 48985 87.8979 283.5082 0001649 90.2321 269.8999 13.16594314203452
Epoch: Sep 15, 2025 • Age: 17 hours

Current Status

Altitude 1199.7 km
Velocity 7.26 km/s
Sub-Earth Point 13.89°N, 5.58°E
Launch Date Jul 1, 2021
Age 4.2 years
Type internet

Technical Details

Classification Payload
Mass 148.00 kg
Dry Mass 140.00 kg
Total Mass 148.00 kg
Length 1.30 m
Diameter 1.00 m
Span 5.00 m
Shape Trapezoid+2 pan
Manufacturer ONEWUS
Bus Type ARROW
Phase Status In Orbit
Owner/State ONEWEBN/UK

Large Constellations

Loading constellations...